Home > Weather > Lens > Past weeks

Flag for France Past Weather in Lens, Nord-Pas-de-Calais, France — Yesterday and Last 2 Weeks

Now
72 °F

Passing clouds.


Feels Like: 76 °F
Forecast: 58 / 74 °F
Wind: 7 mph from Southwest

Location: Lille Airport

Current Time: Jul 24, 2016 at 12:49:24 PM

Latest Report: Jul 24, 2016 at 12:00 PM


Visibility: N/A

Pressure: 30.12 "Hg

Humidity: 61%

Dew Point: 57 °F

Location of LensLocation

Past Weather in Lens — Graph

°F

Lens Temperature Yesterday

Maximum temperature yesterday: 77 °F (at 5:00 PM)
Minimum temperature yesterday: 63 °F (at 12:00 AM)
Average temperature yesterday: 68 °F

High & Low Weather Summary for the Past Weeks

 TemperatureHumidityPressure
High90 °F (Jul 19, 3:00 PM)100% (Jul 13, 8:00 AM)30.33 "Hg (Jul 13, 8:00 AM)
Low50 °F (Jul 14, 7:00 AM)36% (Jul 19, 3:30 PM)29.80 "Hg (Jul 10, 4:00 PM)
Average68 °F71%30.06 "Hg
* Reported Jul 9 11:00 AM — Jul 24 11:30 AM, Lens, Weather by CustomWeather, © 2016

Note: Actual official high and low records may vary slightly from our data, if they occured in-between our weather recording intervals... More about our weather records

Advertising

Lens Weather History for the Previous 24 Hours

Scroll right to see more
 ConditionsComfort  
Time TempWeatherWind HumidityBarometerVisibility
11:30 AM
Sun, Jul 24
70 °FPassing clouds.7 mph64%30.12 "HgN/A
11:00 AM70 °FPassing clouds.6 mph64%30.15 "HgN/A
10:30 AM68 °FPassing clouds.7 mph69%30.15 "HgN/A
10:00 AM66 °FPassing clouds.6 mph73%30.15 "HgN/A
9:30 AM64 °FPassing clouds.6 mph78%30.15 "HgN/A
9:00 AM63 °FPassing clouds.5 mph83%30.15 "HgN/A
8:30 AM63 °FPassing clouds.6 mph83%30.15 "HgN/A
8:00 AM59 °FSunny.3 mph94%30.12 "Hg10 mi
7:30 AM59 °FSunny.No wind88%30.12 "Hg10 mi
7:00 AM57 °FClear.No wind94%30.12 "Hg10 mi
6:30 AM57 °FClear.2 mph94%30.12 "Hg10 mi
6:00 AM57 °FClear.1 mph88%30.12 "Hg10 mi
5:30 AM57 °FClear.No wind88%30.12 "Hg10 mi
5:00 AM57 °FClear.No wind94%30.12 "Hg10 mi
4:30 AM57 °FClear.3 mph94%30.15 "Hg10 mi
4:00 AM59 °FClear.5 mph88%30.15 "Hg10 mi
3:30 AM59 °FClear.5 mph88%30.15 "Hg10 mi
3:00 AM59 °FClear.5 mph88%30.15 "Hg10 mi
2:30 AM59 °FClear.2 mph88%30.15 "Hg10 mi
2:00 AM59 °FClear.2 mph88%30.15 "Hg10 mi
1:30 AM61 °FClear.3 mph88%30.15 "Hg10 mi
1:00 AM61 °FClear.2 mph88%30.15 "Hg10 mi
12:30 AM63 °FClear.6 mph88%30.15 "Hg10 mi
12:00 AM63 °FClear.3 mph83%30.15 "Hg10 mi
11:30 PM
Sat, Jul 23
64 °FClear.3 mph78%30.15 "Hg10 mi
11:00 PM66 °FClear.7 mph78%30.15 "Hg10 mi
10:30 PM66 °FPassing clouds.7 mph78%30.12 "HgN/A
10:00 PM68 °FPassing clouds.7 mph73%30.12 "HgN/A
9:30 PM70 °FSunny.7 mph64%30.12 "Hg10 mi
9:00 PM72 °FPassing clouds.8 mph61%30.12 "HgN/A
8:30 PM73 °FPassing clouds.8 mph57%30.12 "HgN/A
8:00 PM73 °FPassing clouds.7 mph61%30.12 "HgN/A
7:30 PM75 °FPassing clouds.9 mph57%30.12 "HgN/A
7:00 PM75 °FPassing clouds.10 mph57%30.09 "HgN/A
6:30 PM75 °FPassing clouds.8 mph57%30.09 "HgN/A
6:00 PM75 °FPartly sunny.10 mph61%30.12 "HgN/A
5:30 PM77 °FPassing clouds.9 mph57%30.12 "HgN/A
5:00 PM77 °FBroken clouds.8 mph54%30.12 "HgN/A
4:30 PM75 °FPartly sunny.8 mph65%30.12 "HgN/A
4:00 PM75 °FPartly sunny.7 mph65%30.12 "HgN/A
3:30 PM75 °FScattered clouds.7 mph65%30.12 "HgN/A
3:00 PM73 °FOvercast.6 mph69%30.12 "HgN/A
2:30 PM72 °FOvercast.7 mph73%30.12 "HgN/A
2:00 PM72 °FOvercast.8 mph73%30.12 "HgN/A
1:30 PM70 °FOvercast.7 mph73%30.12 "HgN/A
1:00 PM70 °FOvercast.7 mph73%30.12 "HgN/A
12:30 PM68 °FOvercast.9 mph78%30.12 "HgN/A
12:00 PM68 °FOvercast.6 mph78%30.12 "HgN/A
Weather by CustomWeather, © 2016

See weather overviewHow to use our weather pages